www.pogodaiklimat.ru

Погода и климат >> Архив погоды >> Франция >> Сен-Назер


ПОГОДА в Сен-Назере

  • Прогноз погоды в Сен-Назере
  • Монитор погоды в Сен-Назере

АРХИВ ПОГОДЫ в Сен-Назере

Время (UTC), дата Ветер
(напр.,м/с)
 
Видим.   Явления Облачность Т
(С)
Тd
(С)
f
(%)
Тe
(С)
Тes
(С)
Комфортность P
(гПа)
Po
(гПа)
Тmin
(С)
Tmax
(С)
R
(мм)
R24
(мм)
S
(см)
19 15.08 З 3-4
{4}
60 км н/о +17.3 +11.3 68 +17 +17 1021.7 1021.3
20 15.08 З 2-2
{3}
60 км н/о +15.7 +11.7 77 +16 +16 1021.8 1021.4
21 15.08 З 1-1
{2}
40 км н/о +14.4 +11.9 85 +15 +15 1021.7 1021.3 0
22 15.08 З 1-1
{2}
19 км н/о +14.0 +12.6 91 +14 +14 1021.6 1021.2
23 15.08 ЮЗ 1-1
{2}
4800 м дымка н/о +13.1 +11.8 92 +13 +13 1021.6 1021.2
00 16.08 ЮЗ 1-2
{2}
17 км н/о +12.8 +11.7 93 +13 +13 1021.2 1020.8 0
01 16.08 З 1-2
{2}
3600 м дымка н/о +13.0 +12.2 95 +13 +13 1021.0 1020.6
02 16.08 З 2
{3}
600 м туман н/о +12.8 +12.0 95 +12 +12 1020.5 1020.1
03 16.08 ЮЗ 1-1
{2}
4600 м дымка н/о +13.2 +12.4 95 +14 +14 1019.9 1019.5 0.2
04 16.08 З 1-1
{1}
5000 м н/о +12.9 +12.1 95 +14 +14 1019.7 1019.3
05 16.08 В 1-1
{1}
4400 м дымка 10/10
[]
+11.0 +10.4 96 +11 +11 1019.3 1018.9
06 16.08 В 1
{3}
9000 м 9/9 300 м
[]
+11.8 +11.2 96 +12 +12 1019.3 1018.9 +9.9 +18.3
07 16.08 ЮВ 2-3
{3}
5000 м н/о +15.3 +14.7 96 +15 +15 1018.6 1018.2
08 16.08 Ю 3-4
{4}
40 км н/о +17.3 +13.2 77 +17 +17 1018.5 1018.1
09 16.08 ЮЗ 4
{10}
60 км 8/8 600 м
[]
+18.4 +13.7 74 +19 +20 1018.3 1017.9 0
10 16.08 ЮЗ 4-5
{6}
60 км н/о +19.6 +13.3 67 +21 +21 комфорт 1018.1 1017.7
11 16.08 ЮЗ 4 60 км н/о +19.7 +13.8 69 +22 +22 комфорт 1018.0 1017.6
12 16.08 ЮЗ 4
{11}
50 км н/о +19.9 +13.4 66 +22 +22 комфорт 1017.3 1016.9 0
13 16.08 ЮЗ 5-6
{6}
40 км н/о +19.8 +13.0 65 +21 +21 комфорт 1016.9 1016.5
14 16.08 ЮЗ 4-6
{6}
55 км н/о +19.1 +13.7 71 +20 +20 1016.2 1015.8
15 16.08 ЮЗ 4-6
{6}
60 км н/о +19.1 +12.8 67 +20 +20 1016.1 1015.7 0
16 16.08 ЮЗ 4-6
{6}
35 км 9/9 1080 м
[]
+19.0 +13.8 72 +20 +20 1015.0 1014.6
17 16.08 ЮЗ 5 35 км 10/9 1020 м
[]
+19.3 +14.3 73 +21 +21 комфорт 1014.5 1014.1
18 16.08 ЮЗ 4
{12}
55 км 10/10 1000 м
[]
+18.6 +14.7 78 +19 +19 1014.2 1013.8 +12.1 +20.5 0
19 16.08 ЮЗ 4 45 км 9/8 930 м
[]
+18.0 +14.3 79 +18 +18 1013.7 1013.3
20 16.08 ЮЗ 4-6
{6}
35 км слаб. дождь 10/10 800 м
[]
+17.7 +14.8 83 +17 +17 1013.5 1013.1 0.0
21 16.08 ЮЗ 4
{11}
40 км 10/10 600 м
[]
+18.0 +15.3 84 +18 +18 1013.5 1013.1 0.0 0
22 16.08 ЮЗ 4-6
{7}
14 км 10/10 400 м
[]
+17.4 +15.4 88 +17 +17 1013.2 1012.8
23 16.08 ЮЗ 5-6
{6}
18 км 10/10 300 м
[]
+17.4 +15.9 91 +17 +17 1012.7 1012.3 0.0
00 17.08 ЮЗ 5-7
{7}
4500 м дымка 10/10 200 м
[]
+17.4 +16.3 93 +17 +17 1012.3 1011.9 0.2 0
01 17.08 ЮЗ 4-6
{7}
16 км 10/10 150 м
[]
+17.4 +16.6 95 +17 +17 1011.8 1011.4 0.0
02 17.08 ЮЗ 4-6
{7}
2800 м слаб. дождь 10/10 150 м
[]
+17.6 +16.8 95 +17 +17 1011.4 1011.0 0.2
03 17.08 ЮЗ 4-6
{7}
2300 м слаб. морось 10/10 100 м
[]
+17.5 +16.9 96 +17 +17 1011.1 1010.7 0.8 0
04 17.08 ЮЗ 5-6
{6}
2500 м дымка 10/10 90 м
[]
+17.6 +17.0 96 +17 +17 1010.6 1010.2 0.4
05 17.08 ЮЗ 5-6
{7}
4500 м слаб. дождь 10/10 120 м
[]
+17.5 +16.9 96 +17 +17 1010.2 1009.8 2
06 17.08 ЮЗ 4
{12}
2600 м слаб. дождь 10/10 100 м
[]
+17.6 +17.0 96 +17 +17 1010.1 1009.7 +17.1 +18.5 7 0
07 17.08 ЮЗ 4-5
{6}
3800 м слаб. дождь 10/10 120 м
[]
+17.7 +17.1 96 +18 +18 1010.2 1009.8 3
08 17.08 ЮЗ 3-5
{6}
2400 м слаб. дождь 10/10 90 м
[]
+18.1 +17.5 96 +18 +18 1010.1 1009.7 1
09 17.08 ЮЗ 3-4
{5}
3200 м слаб. морось 10/10 100 м
[]
+18.4 +17.7 96 +19 +19 1010.1 1009.7 6 0
10 17.08 З 2 10 км слаб. дождь 10/10 150 м
[]
+18.2 +17.6 96 +19 +19 1010.2 1009.8 2
11 17.08 З 2 15 км 10/10 150 м
[]
+18.3 +17.7 96 +19 +19 1010.4 1010.0 1
12 17.08 З 2-3
{3}
60 км 10/10 200 м
[]
+18.7 +17.7 94 +20 +20 1010.7 1010.3 3
13 17.08 З 3 2100 м слаб. дождь 10/10 210 м
[]
+17.3 +16.0 92 +17 +17 1011.1 1010.7 0.0
14 17.08 З 3-4
{4}
60 км 10/10 270 м
[]
+17.7 +16.2 91 +18 +18 1011.1 1010.7 0.0
15 17.08 З 3
{8}
35 км 10/10 300 м
[]
+17.8 +14.3 80 +18 +19 1011.3 1010.9 0.0 0
16 17.08 З 3-5
{5}
35 км 10/10 480 м
[]
+17.9 +14.8 82 +18 +18 1011.5 1011.1
17 17.08 З 3 35 км 10/6 540 м
[]
+17.1 +13.8 81 +17 +17 1011.5 1011.1 0.0
18 17.08 З 2
{7}
19 км слаб. дождь 10/10 1500 м
[]
+16.4 +14.1 86 +17 +17 1011.3 1010.9 +16.4 +19.2 0.2 0
19 17.08 ЮЗ 1 18 км слаб. дождь 10/10 1500 м
[]
+15.8 +14.0 89 +16 +16 1011.0 1010.6 0.2
20 17.08 ЮЗ 1 35 км 10/9 420 м
[]
+15.4 +13.9 91 +16 +16 1010.6 1010.2 1
21 17.08 ЮВ 3
{7}
19 км 10/10 1000 м
[]
+15.6 +14.3 92 +15 +15 1009.4 1009.0 2 0
22 17.08 ЮВ 2 18 км 10/10 420 м
[]
+16.1 +15.0 93 +16 +16 1008.5 1008.1 0.2
23 17.08 Ю 3-5
{5}
8000 м слаб. морось 10/10 180 м
[]
+17.0 +16.0 94 +17 +17 1008.0 1007.6 0.2
00 18.08 Ю 4-6
{7}
19 км слаб. морось 10/10 200 м
[]
+17.9 +16.9 94 +18 +18 1007.0 1006.6 1 0
01 18.08 Ю 6-8
{8}
16 км 10/10 150 м
[]
+18.5 +17.7 95 +19 +19 1006.3 1005.9 0.2
02 18.08 ЮЗ 6-9
{9}
7000 м слаб. дождь 10/10 180 м
[]
+18.4 +17.6 95 +18 +18 1005.6 1005.2 0.4
03 18.08 ЮЗ 6-8
{10}
1800 м дождь 10/10 100 м
[]
+18.2 +17.6 96 +18 +18 1005.1 1004.7 2 0
04 18.08 ЮЗ 5-9
{10}
5000 м 10/10 120 м
[]
+18.0 +17.4 96 +18 +18 1004.7 1004.3 2
05 18.08 З 5-8
{9}
18 км 10/10 300 м
[]
+17.4 +16.1 92 +17 +17 1005.1 1004.7 0.0
06 18.08 З 4
{14}
60 км 10/10 300 м
[]
+16.2 +14.6 90 +15 +15 1006.9 1006.5 +15.2 +18.7 2 0
07 18.08 СЗ 3-5
{5}
55 км 9/6 360 м
[]
+15.3 +13.3 88 +15 +15 1009.1 1008.7
08 18.08 СЗ 2 55 км н/о +15.1 +13.1 88 +15 +15 1010.0 1009.6
09 18.08 СЗ 3
{9}
60 км 9/9 300 м
[]
+16.5 +13.0 80 +16 +17 1010.7 1010.3 0
10 18.08 З 3-5
{5}
60 км н/о +18.0 +12.0 68 +18 +18 1011.3 1010.9
11 18.08 З 3 45 км н/о +18.7 +11.7 64 +20 +20 1012.1 1011.7
12 18.08 З 4
{11}
60 км 8/8 1000 м
[]
+19.8 +10.8 56 +21 +23 комфорт 1012.5 1012.1 0
13 18.08 З 5-6
{6}
55 км н/о +19.3 +10.6 57 +20 +20 1012.8 1012.4
14 18.08 З 4-6
{7}
40 км н/о +19.5 +10.5 56 +21 +21 комфорт 1013.2 1012.8
15 18.08 З 4-6
{7}
35 км н/о +19.1 +10.6 58 +20 +20 1013.8 1013.4 0
16 18.08 З 4-6
{6}
30 км н/о +18.7 +10.0 57 +19 +19 1014.0 1013.6
17 18.08 З 4-6
{6}
19 км н/о +18.0 +9.3 57 +18 +18 1014.3 1013.9
18 18.08 З 4
{11}
35 км н/о +16.9 +10.0 64 +17 +17 1014.7 1014.3 +14.8 +19.8 0
19 18.08 З 3-4
{5}
45 км н/о +15.9 +10.6 71 +16 +16 1015.1 1014.7
20 18.08 З 2-3
{4}
40 км н/о +15.0 +11.0 77 +15 +15 1015.9 1015.5
21 18.08 З 2-3
{4}
40 км н/о +14.4 +11.0 80 +14 +14 1016.6 1016.2 0
22 18.08 З 2-3
{4}
35 км н/о +14.2 +11.2 82 +14 +14 1017.0 1016.6
23 18.08 З 2-4
{4}
35 км н/о +14.1 +11.1 82 +14 +14 1017.4 1017.0
00 19.08 З 2-2
{3}
35 км н/о +12.8 +10.3 85 +12 +12 1017.7 1017.3 0
01 19.08 З 2-3
{3}
35 км н/о +12.5 +10.6 88 +12 +12 1017.8 1017.4
02 19.08 З 2-3
{3}
35 км н/о +12.3 +10.4 88 +12 +12 1017.9 1017.5
03 19.08 ЮЗ 2-2
{3}
35 км н/о +11.9 +10.1 89 +11 +11 1018.0 1017.6 0
04 19.08 З 2-2
{2}
35 км н/о +11.8 +10.0 89 +11 +11 1018.3 1017.9
05 19.08 ЮЗ 2-2
{2}
35 км н/о +11.7 +10.3 91 +11 +11 1018.6 1018.2
06 19.08 ЮЗ 1
{3}
19 км н/о +13.1 +11.5 90 +13 +13 1019.0 1018.6 +11.1 +17.2
07 19.08 ЮЗ 2 45 км н/о +15.4 +12.0 80 +15 +15 1019.6 1019.2
08 19.08 З 2-3
{3}
35 км н/о +16.8 +11.5 71 +17 +17 1019.8 1019.4
09 19.08 З 2
{7}
19 км н/о +17.8 +11.1 65 +18 +18 1020.1 1019.7 0
10 19.08 З 3 45 км 9/8 1110 м
[]
+18.6 +10.4 59 +19 +21 1020.5 1020.1
11 19.08 З 3-4
{6}
50 км н/о +17.8 +10.7 63 +18 +18 1020.9 1020.5
12 19.08 З 2
{11}
60 км н/о +18.4 +10.0 58 +19 +19 1020.9 1020.5 0
13 19.08 ЮЗ 3 30 км 10/9 1020 м
[]
+19.4 +11.2 59 +21 +21 комфорт 1021.0 1020.6
14 19.08 ЮЗ 4 60 км 9/9 1080 м
[]
+19.2 +11.0 59 +20 +21 1021.3 1020.9
15 19.08 З 3
{11}
55 км н/о +19.0 +10.8 59 +20 +20 1021.3 1020.9 0
16 19.08 З 3-5
{5}
50 км н/о +19.4 +11.9 62 +21 +21 комфорт 1021.3 1020.9
17 19.08 З 3-5
{5}
50 км н/о +18.4 +11.0 62 +19 +19 1021.2 1020.8
18 19.08 З 3
{9}
60 км н/о +17.4 +11.2 67 +17 +17 1021.5 1021.1 +12.8 +20.1 0
19 19.08 З 2-3
{4}
60 км н/о +16.3 +10.8 70 +17 +17 1021.9 1021.5
20 19.08 З 2-2
{3}
55 км н/о +15.0 +11.0 77 +15 +15 1022.5 1022.1
21 19.08 З 2-2
{3}
50 км н/о +13.4 +10.9 85 +13 +13 1022.8 1022.4 0
22 19.08 З 2-2
{3}
45 км н/о +13.3 +10.8 85 +13 +13 1022.9 1022.5
23 19.08 З 2-3
{3}
40 км н/о +14.2 +11.4 83 +14 +14 1023.1 1022.7
00 20.08 З 2-3
{3}
35 км н/о +13.0 +11.1 88 +13 +13 1023.0 1022.6 0
01 20.08 СЗ 2-3
{3}
35 км 8/8
[]
+11.8 +10.4 91 +11 +11 1023.0 1022.6
02 20.08 СЗ 1-1
{3}
35 км н/о +11.4 +9.8 90 +11 +11 1022.9 1022.5
03 20.08 С 1-2
{2}
30 км н/о +10.5 +9.1 91 +10 +10 1023.2 1022.8 0
04 20.08 СЗ 2-2
{2}
35 км н/о +10.4 +9.2 92 +9 +9 1023.6 1023.2
05 20.08 С 1-1
{2}
18 км н/о +9.5 +8.4 93 +10 +10 1024.1 1023.7
06 20.08 СЗ 1
{3}
35 км н/о +9.9 +9.0 94 +9 +9 1024.6 1024.2 +9.4 +17.3 0
07 20.08 С 1-1
{2}
40 км н/о +11.7 +10.3 91 +11 +11 1025.1 1024.7
08 20.08 С 1-2
{2}
50 км н/о +14.4 +11.2 81 +15 +15 1025.4 1025.0
09 20.08 С 1-3
{3}
50 км н/о +16.7 +10.8 68 +18 +18 1025.9 1025.5 0
10 20.08 С 1-3
{3}
60 км н/о +17.4 +8.5 56 +18 +18 1025.9 1025.5
11 20.08 З 1-3
{4}
45 км н/о +19.1 +8.1 49 +21 +21 комфорт 1025.8 1025.4
12 20.08 С 2
{7}
35 км н/о +18.9 +7.6 48 +20 +20 1025.9 1025.5 0
13 20.08 С 1-3
{3}
60 км 9/9 1500 м
[]
+19.7 +6.1 41 +21 +23 комфорт 1025.8 1025.4
14 20.08 С 1-2
{3}
50 км 8/8 1500 м
[]
+19.8 +7.5 45 +22 +25 комфорт 1025.8 1025.4
15 20.08 СЗ 4-4
{7}
55 км 9/9 1500 м
[]
+20.8 +9.1 47 +22 +23 комфорт 1025.8 1025.4 0
16 20.08 З 4-4
{8}
55 км н/о +20.7 +9.3 48 +22 +22 комфорт 1025.7 1025.3
17 20.08 СЗ 5-4
{9}
19 км н/о +20.0 +10.7 55 +21 +21 комфорт 1026.0 1025.6
18 20.08 З 3
{8}
55 км н/о +18.3 +10.6 61 +19 +19 1026.3 1025.9 +9.9 +21.4 0
19 20.08 СЗ 2-3
{4}
50 км н/о +16.6 +11.5 72 +17 +17 1026.6 1026.2
20 20.08 СЗ 1-2
{3}
40 км н/о +15.1 +11.9 81 +16 +16 1027.0 1026.6
21 20.08 С 1-2
{2}
35 км н/о +14.6 +11.7 83 +15 +15 1027.3 1026.9 0
22 20.08 С 2-2
{3}
45 км н/о +13.8 +10.4 80 +14 +14 1027.4 1027.0
23 20.08 С 2-2
{3}
50 км н/о +12.6 +9.6 82 +12 +12 1027.5 1027.1
00 21.08 С 2-3
{3}
55 км н/о +12.2 +8.8 80 +12 +12 1027.3 1026.9 0
01 21.08 СВ 2-3
{3}
55 км н/о +11.6 +8.4 81 +11 +11 1027.3 1026.9
02 21.08 СВ 2-2
{2}
55 км н/о +11.4 +8.8 84 +11 +11 1027.0 1026.6
03 21.08 СВ 1-2
{3}
50 км н/о +10.8 +8.4 85 +10 +10 1026.9 1026.5 0
04 21.08 СВ 2-2
{2}
45 км н/о +10.8 +8.4 85 +10 +10 1026.6 1026.2
05 21.08 СВ 2-2
{3}
45 км н/о +10.6 +8.4 86 +10 +10 1026.7 1026.3
06 21.08 СВ 2
{6}
19 км н/о +11.7 +8.9 83 +11 +11 1026.9 1026.5 +10.4 +18.3 0
07 21.08 СВ 2-4
{4}
50 км н/о +13.3 +9.5 78 +13 +13 1027.0 1026.6
08 21.08 В 2-3
{3}
50 км н/о +15.4 +10.6 73 +16 +16 1026.9 1026.5
09 21.08 СВ 2-3
{3}
45 км н/о +19.0 +12.0 64 +20 +20 1026.6 1026.2 0
10 21.08 СВ 2-3
{3}
40 км н/о +21.5 +13.1 59 +24 +24 комфорт 1026.5 1026.1
11 21.08 В 2-3
{3}
60 км н/о +23.5 +12.2 49 +25 +25 комфорт 1025.9 1025.5
12 21.08 ЮВ 2-3
{4}
60 км н/о +24.9 +8.0 34 +25 +25 комфорт 1025.5 1025.1 0
13 21.08 ЮВ 2-4
{4}
60 км н/о +25.0 +9.3 37 +26 +26 жарко 1025.1 1024.7
14 21.08 ЮВ 2-4
{4}
60 км н/о +25.3 +8.3 34 +26 +26 жарко 1024.8 1024.4
15 21.08 СЗ 2-5
{5}
50 км н/о +25.9 +7.9 32 +26 +26 жарко 1024.6 1024.3 0
16 21.08 СВ 3
{6}
50 км н/о +25.7 +8.7 34 +26 +26 жарко 1024.4 1024.1
17 21.08 С 2-3
{3}
60 км н/о +25.5 +8.0 33 +26 +26 жарко 1024.3 1024.0
18 21.08 З 2
{7}
55 км н/о +23.3 +11.4 47 +26 +26 жарко 1024.4 1024.0 +11.7 +26.8 0
19 21.08 СЗ 2-2
{3}
60 км н/о +21.2 +11.8 55 +23 +23 комфорт 1024.4 1024.0
20 21.08 СЗ 2-3
{3}
60 км н/о +19.1 +12.6 66 +21 +21 комфорт 1024.8 1024.4
21 21.08 СЗ 2-3
{3}
60 км н/о +18.1 +12.5 70 +19 +19 1025.1 1024.7 0
22 21.08 СЗ 2-3
{3}
55 км н/о +17.4 +11.7 69 +18 +18 1025.3 1024.9
23 21.08 С 2-2
{3}
55 км н/о +16.1 +11.9 76 +16 +16 1025.3 1024.9
00 22.08 С 1-2
{2}
55 км н/о +15.0 +11.4 79 +16 +16 1025.1 1024.7 0
01 22.08 С 1-1
{2}
45 км н/о +13.9 +10.9 82 +15 +15 1025.0 1024.6
02 22.08 СЗ 1-2
{2}
50 км н/о +13.3 +10.8 85 +13 +13 1025.0 1024.6
03 22.08 С 1-1
{2}
40 км н/о +12.0 +10.1 88 +12 +12 1024.9 1024.5 0
04 22.08 С 1-1
{1}
35 км н/о +11.6 +9.8 89 +12 +12 1024.9 1024.5
05 22.08 С 2-2
{2}
30 км н/о +11.5 +9.9 90 +11 +11 1024.9 1024.5
06 22.08 С 1
{4}
19 км н/о +12.2 +10.8 91 +12 +12 1025.3 1024.9 +11.2 +23.3 0
07 22.08 СВ 1-2
{2}
19 км н/о +15.1 +12.2 83 +16 +16 1025.7 1025.3
08 22.08 СВ 1-2
{2}
40 км н/о +18.1 +13.2 73 +19 +19 1025.9 1025.5
09 22.08 В 1-2
{2}
40 км н/о +21.3 +13.5 61 +24 +24 комфорт 1025.9 1025.5 0
10 22.08 В 1-2
{2}
55 км н/о +24.2 +12.8 49 +26 +26 жарко 1026.0 1025.6
11 22.08 ЮВ 1-3
{3}
27 км н/о +25.6 +11.7 42 +27 +27 жарко 1025.5 1025.2
12 22.08 ЮВ 2-3
{3}
60 км н/о +26.1 +11.4 40 +27 +27 жарко 1025.1 1024.8 0
13 22.08 СВ 1-2
{3}
19 км н/о +27.3 +10.5 35 +28 +28 жарко 1024.7 1024.4
14 22.08 З 1-2
{4}
55 км н/о +27.4 +9.2 32 +28 +28 жарко 1024.5 1024.2
15 22.08 СВ 1-3
{4}
18 км н/о +27.7 +8.0 29 +27 +27 жарко 1024.1 1023.8 0
17 22.08 СВ 2-3
{3}
50 км н/о +27.1 +10.3 35 +28 +28 жарко 1023.5 1023.2
18 22.08 СЗ 2 55 км н/о +24.2 +12.2 47 +26 +26 жарко 1023.7 1023.3 +12.2 +28.0
19 22.08 СЗ 2-3
{3}
60 км н/о +21.4 +12.8 58 +24 +24 комфорт 1023.8 1023.4

 

Местоположение метеостанции Сен-Назер (Франция): широта 47.32 долгота -2.17 высота над уровнем моря 3 м.

В архиве по умолчанию представлена погода в Сен-Назере за последнюю неделю. Архивные данные за месяц целиком и за предыдущие месяцы, начиная с января 2011 года, Вы можете получить, выбрав интересующий диапазон дат из раскрывающегося списка и нажав кнопку "Ввод!".


*Определитесь, кто Вы:
робот инопланетянин человек

Внимание! Время в таблицах - всемирное. Для получения местного времени необходимо прибавить поправку, которая равна 1 ч.

Смотрите также архив погоды в соседних городах и на ближайших метеорологических станциях:

Погода на Шемулене (Франция) (14 км)
Погода в Нанте (Франция) (47 км)
Погода на Йе (Франция) (70 км)
Погода в Дю Талю (Франция) (75 км)
Погода в Ренне (Франция) (90 км)
Погода в Ла-Рош-сюр-Йоне (Франция) (91 км)
Погода на Груа (Франция) (106 км)
Погода в Лорьене (Франция) (108 км)
Погода в Бокузе (Франция) (120 км)
Погода в Лавале (Франция) (134 км)

Пояснения к столбцам:

Ветер - указаны скорость ветра в м/с - средняя за 10 мин, порывы в срок и между сроками (в фигурных скобках) и направление, откуда дует ветер: С - северный, СВ - северо-восточный, В - восточный, ЮВ - юго-восточный, Ю - южный, ЮЗ - юго-западный, З - западный, СЗ - северо-западный.
Видимость - горизонтальная дальность видимости в метрах или километрах. При видимости от 1 до 10 км при отсутствии осадков обычно наблюдается дымка, при ухудшении видимости до 1 км и менее - туман. В сухую погоду видимость может ухудшаться дымом, пылью или мглою.
Явления - указаны атмосферные явления, наблюдавшиеся в срок или в последний час перед сроком; фигурными скобками обозначены явления, наблюдавшиеся между сроками (за 1-3 часа до срока); квадратными скобками обозначены град или гололедные отложения с указанием их диаметра в мм.
Облачность - указаны через наклонную черту общая и нижняя облачность в баллах и высота нижней границы облаков в метрах; квадратными скобками обозначены формы облаков: Ci - перистые, Cs - перисто-слоистые, Cc - перисто-кучевые, Ac - высококучевые, As - высокослоистые, Sc - слоисто-кучевые, Ns - слоисто-дождевые, Cu - кучевые, Cb - кучево-дождевые. Подробнее классификацию облаков см. в Атласе облаков (PDF).
T - Температура воздуха - температура, измеренная на высоте 2 м над землей.
Td - Температура точки росы - температура, при понижении до которой содержащийся в воздухе водяной пар достигнет насыщения.
f - Относительная влажность воздуха - влажноcть воздуха, измеренная на высоте 2 м над землей.
Te - Эффективная температура - температура, которую ощущает одетый по сезону человек в тени. Характеристика душности погоды. При расчете учитывается влияние влажности воздуха и скорости ветра на теплоощущения человека.
Tes - Эффективная температура на солнце - температура, которую ощущает человек, с поправкой на солнечный нагрев. Характеристика знойности погоды. Зависит от высоты солнца над горизонтом, облачности и скорости ветра. Ночью, в пасмурную погоду, а также при ветре 12 м/с и более поправка равна нулю.
P - Атмосферное давление - приведенное к уровню моря атмосферное давление.
Po - Атмосферное давление - измеренное на уровне метеостанции атмосферное давление.
Tmin - Минимальная температура - минимум температуры воздуха на высоте 2 м над землей.
Tmax - Максимальная температура - максимум температуры воздуха на высоте 2 м над землей.
R - Количество осадков - Количество выпавших осадков за период времени, мм. При наведении курсора мыши на число - период времени, за который выпало указанное количество осадков.
R24 - Количество осадков - Количество выпавших осадков за 24 часа, мм.
S - Снежный покров - Высота снежного покрова, см. При наведении курсора мыши на число - состояние снежного покрова и степень покрытия местности в баллах.